Home > Weather > Guiyang > Past weeks

Flag for China Past Weather in Guiyang, Guizhou, China — Yesterday and Last 2 Weeks

Now
72 °F

Scattered clouds.


Feels Like: 67 °F
Forecast: 65 / 79 °F
Wind: No wind

Location: Guiyang Airport

Current Time: Aug 26, 2016 at 8:21:00 PM

Latest Report: Aug 26, 2016 at 7:00 PM


Visibility: N/A

Pressure: 29.98 "Hg (26.50 "Hg at 1067m altitude)

Humidity: 94%

Dew Point: 70 °F

Location of GuiyangLocation

Past Weather in Guiyang — Graph

°F

Guiyang Temperature Yesterday

Maximum temperature yesterday: 91 °F (at 2:00 PM)
Minimum temperature yesterday: 68 °F (at 6:00 AM)
Average temperature yesterday: 80 °F

High & Low Weather Summary for the Past Weeks

 TemperatureHumidityPressure
High91 °F (Aug 24, 2:00 PM)100% (Aug 12, 12:00 AM)30.04 "Hg (Aug 12, 12:00 AM)
Low66 °F (Aug 17, 5:00 AM)46% (Aug 25, 3:00 PM)29.65 "Hg (Aug 17, 5:00 PM)
Average75 °F86%29.84 "Hg
* Reported Aug 11 7:00 PM — Aug 26 7:00 PM, Guiyang, Weather by CustomWeather, © 2016

Note: Actual official high and low records may vary slightly from our data, if they occured in-between our weather recording intervals... More about our weather records

Advertising

Guiyang Weather History for the Previous 24 Hours

Scroll right to see more
 ConditionsComfort  
Time TempWeatherWind HumidityBarometerVisibility
7:00 PM
Fri, Aug 26
72 °FScattered clouds.No wind94%29.98 "HgN/A
6:00 PM72 °FMore clouds than sun.1 mph88%29.95 "HgN/A
5:00 PM73 °FMore clouds than sun.1 mph89%29.95 "HgN/A
4:00 PM72 °FOvercast.1 mph94%29.95 "HgN/A
3:00 PM72 °FSprinkles. Broken clouds.1 mph94%29.98 "HgN/A
2:00 PM68 °FThunderstorms. Mostly cloudy.3 mph100%30.04 "HgN/A
1:00 PM70 °FThunderstorms. Cloudy.20 mph94%30.01 "HgN/A
12:00 PM79 °FStrong thunderstorms. Fog.10 mph74%29.98 "Hg3 mi
11:00 AM79 °FBroken clouds.6 mph84%29.98 "Hg4 mi
10:00 AM79 °FBroken clouds.1 mph84%29.98 "Hg5 mi
9:00 AM73 °FBroken clouds.1 mph94%29.95 "Hg4 mi
8:00 AM72 °FScattered clouds.3 mph100%29.95 "Hg4 mi
7:00 AM70 °FClear.No wind100%29.92 "Hg4 mi
6:00 AM70 °FClear.1 mph100%29.92 "Hg4 mi
5:00 AM72 °FClear.1 mph100%29.92 "Hg4 mi
4:00 AM72 °FClear.1 mph100%29.89 "Hg4 mi
3:00 AM72 °FClear.1 mph100%29.89 "Hg4 mi
2:00 AM73 °FClear.1 mph94%29.89 "Hg4 mi
1:00 AM75 °FPassing clouds.1 mph94%29.92 "HgN/A
12:00 AM75 °FPassing clouds.1 mph89%29.95 "HgN/A
11:00 PM
Thu, Aug 25
77 °FPassing clouds.1 mph83%29.95 "HgN/A
10:00 PM77 °FPassing clouds.No wind83%29.92 "HgN/A
9:00 PM79 °FPassing clouds.1 mph79%29.89 "HgN/A
8:00 PM82 °FPassing clouds.1 mph70%29.86 "HgN/A
Weather by CustomWeather, © 2016

See weather overviewHow to use our weather pages